Regional Weather Roundup
Issued by NWS Charleston, WV

Home | Current Version | Previous Version | Text Only | Print | Product List | Glossary Off
Versions: 1 2 3 4 5 6 7 8 9 10 11 12 13 14 15 16 17 18 19 20 21 22 23 24 25 26 27 28 29 30 31 32 33 34 35 36 37 38 39 40 41 42 43 44 45 46 47 48 49 50

000
ASUS41 KRLX 232210
RWRRLX
West Virginia Regional Weather Roundup
National Weather Service Charleston WV
600 PM EDT SAT MAY 23 2015

Note: "fair" indicates few or no clouds below 12,000 feet with no
significant weather and/or obstructions to visibility.

WVZ003-232300-
Northern Panhandle of West Virginia

CITY           SKY/WX    TMP DP  RH WIND       PRES   REMARKS
WHEELING       NOT AVBL
$$

WVZ009-232300-
Northwest West Virginia

CITY           SKY/WX    TMP DP  RH WIND       PRES   REMARKS
PARKERSBURG    SUNNY     76  38  25 SW6       30.37F
$$

WVZ006-232300-
Western West Virginia

CITY           SKY/WX    TMP DP  RH WIND       PRES   REMARKS
HUNTINGTON     SUNNY     76  43  30 VRB3      30.32F
$$

WVZ015-232300-
West Central West Virginia

CITY           SKY/WX    TMP DP  RH WIND       PRES   REMARKS
CHARLESTON     MOSUNNY   78  43  28 VRB3      30.33F
$$

WVZ022-031-232300-
North Central West Virginia

CITY           SKY/WX    TMP DP  RH WIND       PRES   REMARKS
CLARKSBURG     SUNNY     74  39  28 W9        30.35F
MORGANTOWN     SUNNY     72  33  24 CALM      30.37F
$$

WVZ025-035-042-045-232300-
Southern West Virginia

CITY           SKY/WX    TMP DP  RH WIND       PRES   REMARKS
BECKLEY        SUNNY     73  38  27 CALM      30.39S
LOGAN            N/A     75  48  38 CALM      30.33S
BLUEFIELD      MOSUNNY   75  39  27 W6        30.40S
LEWISBURG      MOSUNNY   74  42  32 W8        30.38S
$$

WVZ047-232300-
Northern Mountains of West Virginia

CITY           SKY/WX    TMP DP  RH WIND       PRES   REMARKS
ELKINS         SUNNY     72  35  25 NW8       30.38S
$$

WVZ052-232300-
Eastern Panhandle of West Virginia

CITY           SKY/WX    TMP DP  RH WIND       PRES   REMARKS
MARTINSBURG    SUNNY     71  41  33 VRB5      30.36F
PETERSBURG     SUNNY     76  37  24 SE3       30.34S
$$



USA.gov is the U.S. government's official web portal to all federal, state and local government web resources and services.